Regional Weather Roundup
Issued by NWS Green Bay, WI

Home | Current Version | Previous Version | Graphics & Text | Print | Product List | Glossary Off
Versions: 1 2 3 4 5 6 7 8 9 10 11 12 13 14 15 16 17 18 19 20 21 22 23 24 25 26 27 28 29 30 31 32 33 34 35 36 37 38 39 40 41 42 43 44 45 46 47 48 49 50

000
ASUS43 KGRB 210600
RWRGRB

NORTH-CENTRAL AND NORTHEAST WISCONSIN REGIONAL WEATHER ROUNDUP
NATIONAL WEATHER SERVICE GREEN BAY WI
1200 AM CST TUE NOV 21 2017

WIZ005-009-010>012-018-019-210700-
NORTH CENTRAL WISCONSIN

CITY           SKY/WX    TMP DP  RH WIND       PRES   REMARKS
IRONWOOD       CLOUDY    39  28  64 W17G24    29.30S
MANITOWISH WTR NOT AVBL
ARBOR VITAE    NOT AVBL
EAGLE RIVER    NOT AVBL
LAND O LAKES   NOT AVBL
RHINELANDER    CLOUDY    38  29  70 W10       29.35S
PHILLIPS       NOT AVBL
ANTIGO         NOT AVBL
TOMAHAWK       NOT AVBL
MERRILL        NOT AVBL
$$

WIZ013-073-210700-
NORTHEAST WISCONSIN

CITY           SKY/WX    TMP DP  RH WIND       PRES   REMARKS
IRON MOUNTAIN  CLOUDY    42  28  57 SW13G22   29.31S
MARINETTE      CLEAR     46  31  55 SW13      29.39R
$$

WIZ017-030-035>037-045-210700-
CENTRAL WISCONSIN

CITY           SKY/WX    TMP DP  RH WIND       PRES   REMARKS
MEDFORD        NOT AVBL
WAUSAU         CLEAR     41  28  60 SW12      29.41S
MOSINEE        NOT AVBL
MARSHFIELD     CLEAR     40  27  59 SW12      29.43F
WISC RAPIDS    CLEAR     45  28  51 W10       29.47F
STEVENS POINT  NOT AVBL
WAUPACA        NOT AVBL
SHAWANO        NOT AVBL
CLINTONVILLE   NOT AVBL
WAUTOMA        CLEAR     47  29  49 SW10      29.48
$$

WIZ038-039-048-051-210700-
FOX VALLEY

CITY           SKY/WX    TMP DP  RH WIND       PRES   REMARKS
NWS GREEN BAY  CLEAR     44  34  67 SW10      29.44R
APPLETON       NOT AVBL
OSHKOSH        CLEAR     45  32  60 SW14      29.47S
FOND DU LAC    CLEAR     46  31  55 SW16G24   29.49F
$$

WIZ022-050-052-210700-
EAST CENTRAL WISCONSIN

CITY           SKY/WX    TMP DP  RH WIND       PRES   REMARKS
EPHRAIM        NOT AVBL
WASHINGTON ISL NOT AVBL
STURGEON BAY   CLEAR     47  33  58 SW18G24   29.41R
MANITOWOC      CLEAR     50  31  48 SW21G32   29.46
SHEBOYGAN      CLOUDY    49  32  52 SW22G32   29.49F
$$

LMZ563-521-522-541>543-210700-
LAKESHORE

STATION/POSITION TIME  TEMP    WIND        PRES    VSBY  WAVE
                       AIR SEA DIR/SP/G                  HT/PER
                 (UTC) (F)     (DEG/KT/KT) (MB)    (MI)  (FT/S)
SHEBOYGAN LKSHOR 0500   50     220/ 16/ 18  999.2F
KEWAUNEE LKSHORE 0530   50     220/ 12/ 24  996.4F
NORTHPORT PIER   0540   50     220/ 11/ 24  994.9R
N MID LAKE BUOY  0450   49 48  200/ 29/ 35  994.7F        10/ 8
SISTER BAY LKSHO 0519   50     230/ 23/ 30   N/A
MENOMINEE LKSHOR 0530   46     200/ 13/ 18  995.1R
$$



USA.gov is the U.S. government's official web portal to all federal, state and local government web resources and services.